Regional Weather Roundup
Issued by NWS

Home | Current Version | Previous Version | Graphics & Text | Print | Product List | Glossary On
Versions: 1 2 3 4 5 6 7 8 9 10 11 12 13 14 15 16 17 18 19 20 21 22 23 24 25 26 27 28 29 30 31 32 33 34 35 36 37 38 39 40 41 42 43 44 45 46 47 48 49 50
000
ASUS43 KMKX 142059
RWRWI

WISCONSIN REGIONAL WEATHER ROUNDUP
NATIONAL WEATHER SERVICE MILWAUKEE/SULLIVAN WI
300 PM CST THU DEC 14 2017

NOTE: "FAIR" INDICATES FEW OR NO CLOUDS BELOW 12,000 FEET WITH NO
SIGNIFICANT WEATHER AND/OR OBSTRUCTIONS TO VISIBILITY.

WIZ001-002-006>008-014>016-023>028-142200-
NORTHWEST WISCONSIN

CITY           SKY/WX    TMP DP  RH WIND       PRES   REMARKS
SUPERIOR ARPT  FLURRIES  19  12  73 W7        29.97F WCI  10
ASHLAND        CLOUDY    19  12  74 SW8       29.96F WCI   9
HAYWARD        LGT SNOW  18  13  80 SW8       29.94F WCI   8
SIREN          FLURRIES  19  13  77 W6        29.98F WCI  11
CUMBERLAND     FLURRIES  19  12  73 W10       29.96F WCI   8
RICE LAKE      LGT SNOW  20  16  83 CALM      29.99F
CHETEK         CLOUDY    20  15  78 W5        29.99S WCI  14
LADYSMITH      LGT SNOW  21  15  80 SW8       29.97F WCI  11
EAU CLAIRE     CLOUDY    23  15  71 W10       29.99S WCI  12
MENOMONIE      CLOUDY    23  16  74 SW12      30.00S WCI  12
NEW RICHMOND   FLURRIES  21  15  78 W7        29.99F WCI  13
OSCEOLA        FLURRIES  21  16  81 W8        30.04S WCI  12
$$

WIZ003>005-009-010-017-018-142200-
NORTH CENTRAL WISCONSIN

CITY           SKY/WX    TMP DP  RH WIND       PRES   REMARKS
MANITOWISH WTR LGT SNOW  15  12  90 W3        29.90F
ARBOR VITAE    LGT SNOW  17  13  86 CALM      29.91S
WOODRUFF       LGT SNOW  17  13  86 CALM      29.91S
RHINELANDER    LGT SNOW  18  13  80 W7        29.91F WCI   9
EAGLE RIVER    FLURRIES  15   8  76 W7        29.90S WCI   5
LAND O LAKES   LGT SNOW  16  10  79 SW3       29.91F
PHILLIPS       LGT SNOW  18  15  90 SW5       29.91F WCI  11
TOMAHAWK       LGT SNOW  19  14  82 W3        29.93S
MEDFORD        LGT SNOW  19  14  82 SW7       29.94S WCI   9
MERRILL        FLURRIES  19  15  83 W7        29.95S WCI  10
$$

WIZ029-030-035-036-043>047-142200-
CENTRAL WISCONSIN

CITY           SKY/WX    TMP DP  RH WIND       PRES   REMARKS
WAUSAU         FLURRIES  20  14  77 W9        29.95S WCI   9
MOSINEE        LGT SNOW  19  16  86 SW8       29.97F WCI   9
MARSHFIELD     CLOUDY    20  14  77 W8        29.96S WCI  10
STEVENS POINT  FLURRIES  19  13  76 W9        29.99S WCI   9
WAUPACA        PTCLDY    25  14  62 SW8       30.01S WCI  16
WAUTOMA        PTSUNNY   24  13  62 W10       30.01F WCI  14
WISC RAPIDS    CLOUDY    23  12  62 W7        30.01S WCI  15
CAMP DOUGLAS   NOT AVBL
$$

WIZ011>013-019>022-031-037>040-048>050-142200-
NORTHEAST WISCONSIN

CITY           SKY/WX    TMP DP  RH WIND       PRES   REMARKS
ANTIGO         FLURRIES  18  13  82 W7        29.93F WCI   9
SHAWANO        CLOUDY    24  16  69 W6        29.98S WCI  17
OCONTO         CLOUDY    21  11  65 W5        29.99F WCI  15
STURGEON BAY   CLEAR     20  11  68 SW8       29.99S WCI  10
GREEN BAY      PTCLDY    20  10  65 SW5       30.00F WCI  13
MANITOWOC      CLEAR     22  11  62 W9        30.02F WCI  12
APPLETON       CLOUDY    21  10  63 SW7       29.98F WCI  13
CLINTONVILLE   CLOUDY    23  12  63 W8        29.99F WCI  14
OSHKOSH        PTCLDY    21  12  68 SW7       30.01F WCI  12
$$

WIZ032>034-041-042-053>061-142200-
SOUTHWEST WISCONSIN

CITY           SKY/WX    TMP DP  RH WIND       PRES   REMARKS
LA CROSSE      CLOUDY    27  13  55 SW9       30.03F WCI  18
SPARTA         CLOUDY    26  14  60 SW5       30.03S WCI  20
VIROQUA        CLOUDY    24  14  68 SW5       29.99F WCI  18
BOSCOBEL       SUNNY     29  12  49 SW6       30.04F WCI  23
PRAIRIE DU CHI SUNNY     28  11  48 S3        30.04F
PLATTEVILLE    SUNNY     27  11  51 SW6       30.02F WCI  21
$$

WIZ056-057-062-063-064-067-068-142200-
SOUTH CENTRAL WISCONSIN

CITY           SKY/WX    TMP DP  RH WIND       PRES   REMARKS
REEDSBURG      MOSUNNY   25  11  56 SW7       30.01F WCI  17
BARABOO/DELLS  SUNNY     26  11  55 W7        30.01F WCI  18
LONE ROCK      NOT AVBL
MINERAL POINT  SUNNY     28  14  54 W3        30.01S
MADISON        MOSUNNY   25  10  53 W6        30.02F WCI  18
MIDDLETON      SUNNY     28  11  49 SW5       30.02F WCI  22
WATERTOWN      SUNNY     24  12  61 NW7       30.02F WCI  16
MONROE         SUNNY     27  10  50 CALM      30.01F
JANESVILLE     MOSUNNY   28   9  43 NW6       30.03F WCI  22
$$

WIZ051-052-058>065-066-070>072-142200-
SOUTHEAST WISCONSIN

CITY           SKY/WX    TMP DP  RH WIND       PRES   REMARKS
MILWAUKEE      MOSUNNY   24  10  55 W7        30.04S WCI  16
WAUKESHA       SUNNY     21   9  58 W9        30.02F WCI  11
MILWAUKEE/TIMM SUNNY     21   7  53 NW10      30.03F WCI  10
RACINE         SUNNY     24   9  52 NW7       30.05S WCI  16
BURLINGTON     SUNNY     25  11  56 NW7       30.03F WCI  17
KENOSHA        MOSUNNY   25  10  53 NW7       30.03S WCI  17
FOND DU LAC    CLEAR     22  10  60 SW6       30.02F WCI  14
SHEBOYGAN      CLEAR     19  10  68 W8        30.01F WCI   9
WEST BEND      SUNNY     21  12  68 W7        30.02F WCI  13
JUNEAU         MOSUNNY   21  11  65 SW5       30.03F WCI  14
$$

LSZ147-162-142200-
LAKE SUPERIOR

STATION/POSITION TIME  TEMP    WIND        PRES    WAVE
                       AIR SEA DIR/SP/G            HT/PER
                 (UTC) (F)     (DEG/KT/KT) (MB)    (FT/S)
DEVILS ISLAND    1900   20     250/ 10/ 13 1015.7F
SAXON HARBOR     1940   19                 1014.9S
$$

LMZ867-665-643>646-142200-
LAKE MICHIGAN

STATION/POSITION TIME  TEMP    WIND        PRES    WAVE
                       AIR SEA DIR/SP/G            HT/PER
                 (UTC) (F)     (DEG/KT/KT) (MB)    (FT/S)
NORTHPORT PIER   1956   23     310/  2/ 10 1014.9F
KEWAUNEE LAKESHO 1948   20     250/  5/ 10 1015.6R
SHEBOYGAN LAKESH 2000   21     290/  7/ 10 1018.1F
PORT WASHINGTON  1940   22     290/  6/ 11 1018.6S
MILWAUKEE LAKESH 1950   22     310/  7/  8   N/A
KENOSHA   LAKESH 2000   24     310/  9/ 11 1017.3
$$

TC  - TEMPERATURE IN CELSIUS
VSB - VISIBILITY IN STATUTE MILES
WCI - WIND CHILL INDEX
HX  - HEAT INDEX





USA.gov is the U.S. government's official web portal to all federal, state and local government web resources and services.